Other Public Products
Issued by NWS Charleston, SC

Home | Current Version | Previous Version | Text Only | Print | Product List | Glossary On
Versions: 1 2 3 4 5 6 7 8 9 10 11 12 13 14 15 16 17 18 19 20 21 22 23 24 25 26 27 28 29 30 31 32 33 34 35 36 37 38 39 40 41 42 43 44 45 46 47 48 49 50
000
FPUS82 KCHS 242227
OPUCHS

TEST...KCHS/KSAV Gateway Observations...TEST
National Weather Service Charleston SC
500 PM EST SAT FEB 24 2018

NOTE: "fair" indicates few or no clouds below 12,000 feet with no
significant weather and/or obstructions to visibility.

SCZ050-WAZ558-NCZ071-TXZ119-213-PAZ071-DCZ001-FLZ074-172-MI076-
NYZ176-178-MAZ016-IL014-TNZ027-NJZ106-GAZ044-MD014-242300-

...Gateway Observations for Charleston International...

CITY           SKY/WX    TMP DP  RH WIND       PRES   REMARKS
Chas Airport   FAIR      77  62  59 S13       30.13S
Seattle        PTSUNNY   43  32  65 CALM      30.13S
Charlotte      PTSUNNY   78  58  49 SW16      30.06S
Dallas DFW     PTSUNNY   63  47  55 NW13      29.85S
Dallas Love    PTSUNNY   61  49  64 NW12      29.86S
Philladelphia  CLOUDY    50  46  86 NE7       30.17F
Wash National  LGT RAIN  51  49  92 NE14      30.12F
Baltimore      CLOUDY    49  46  90 NE14      30.13F
Miami          PTSUNNY   77  68  73 SE13      30.14S
Detroit        CLOUDY    40  32  73 E12       30.08F WCI  33
Newark         LGT RAIN  48  42  80 NW10      30.19R
Laguardia      CLOUDY    48  41  76 NW10      30.18S
J F K          LGT RAIN  48  45  89 N7        30.18S
Boston Logan   CLOUDY    51  32  48 NW7       30.16R
Ft. Lauderdale FAIR      78  70  76 SE17      30.13S
Chicago O`Hare LGT RAIN  41  35  79 E13       29.87F
Chicago Midway LGT RAIN  41  38  89 E10       29.88F FOG
Houston Bush   CLOUDY    79  66  64 S9G18     29.86F
Houston Hobby  PTSUNNY   78  69  73 S18       29.87S
Nashville      PTSUNNY   77  60  55 S22G29    29.87F
Atlanta        PTSUNNY   77  57  50 SW15G22   30.05F

$$

GAZ044-118-TXZ119-213-NCZ071-DCZ001-MDZ014-506-PAZ021-071-NJZ106-
NYZ176-178-MAZ106-OHZ011-021-055-MIZ076-KYZ091-ILZ014-INZ047-
MNZ060-ONZ431-242300-

...Gateway Observations for Savannah International...

CITY           SKY/WX    TMP DP  RH WIND       PRES   REMARKS
Savannah Arpt  FAIR      79  60  52 S15       30.12F
Atlanta        PTSUNNY   77  57  50 SW15G22   30.05F
Charlotte      PTSUNNY   78  58  49 SW16      30.06S
Dallas DFW     PTSUNNY   63  47  55 NW13      29.85S
Houston Bush   CLOUDY    79  66  64 S9G18     29.86F
Wash National  LGT RAIN  51  49  92 NE14      30.12F
Wash Dulles    LGT RAIN  50  50 100 NE8       30.11S
Baltimore      CLOUDY    49  46  90 NE14      30.13F
Philadelphia   CLOUDY    50  46  86 NE7       30.17F
Newark         LGT RAIN  48  42  80 NW10      30.19R
Laguardia      CLOUDY    48  41  76 NW10      30.18S
J F K          LGT RAIN  48  45  89 N7        30.18S
Boston         CLOUDY    51  32  48 NW7       30.16R
Pittsburg      CLOUDY    48  44  86 E8        30.03F
Akron          CLOUDY    47  43  86 E9        30.04F
Cleveland      CLOUDY    40  36  86 NE8       30.08F WCI  34
Cincinnati     RAIN      53  51  93 SE17      29.91F FOG
Columbus       LGT RAIN  50  48  95 E5        30.00S
Detroit        CLOUDY    40  32  73 E12       30.08F WCI  33
Chicago O`Hare LGT RAIN  41  35  79 E13       29.87F
Minneapolis    SNOW      27  26  96 NE12      29.71F VSB 1/2 WCI  17
Indianapolis   CLOUDY    50  49  96 E10       29.89F
Toronto Canada MOCLDY    36  25  64 SE7       30.15F WCI  30

$$




USA.gov is the U.S. government's official web portal to all federal, state and local government web resources and services.